Regional Weather Roundup
Issued by NWS

Home | Current Version | Previous Version | Text Only | Print | Product List | Glossary On
Versions: 1 2 3 4 5 6 7 8 9 10 11 12 13 14 15 16 17 18 19 20 21 22 23 24 25 26 27 28 29 30 31 32 33 34 35 36 37 38 39 40 41 42 43 44 45 46 47 48 49 50
000
ASUS43 KLMK 270210
RWRKY
KENTUCKY REGIONAL WEATHER ROUNDUP
NATIONAL WEATHER SERVICE LOUISVILLE KY
1000 PM EDT FRI MAY 26 2017

NOTE "FAIR" INDICATES FEW OR NO CLOUDS BELOW 12,000 FEET
WITH NO SIGNIFICANT WEATHER AND/OR OBSTRUCTIONS TO VISIBILITY.

KYZ001>023-026-027-061>063-070>075-270300-
WESTERN AND SOUTH CENTRAL KENTUCKY

CITY           SKY/WX    TMP DP  RH WIND       PRES   REMARKS
PADUCAH        CLOUDY    72  67  84 S3        29.85S
HENDERSON      CLOUDY    72  67  84 SW10      29.85R
OWENSBORO      MOCLDY    77  65  66 SW15      29.84R
HOPKINSVILLE   CLOUDY    76  63  62 SW6       29.88R
BOWLING GREEN  CLOUDY    80  60  50 SW8       29.88R
GLASGOW        CLOUDY    74  62  67 CALM      29.89R
$$

KYZ024-025-028>034-038-045-046-053-270300-
NORTH CENTRAL KENTUCKY

CITY           SKY/WX    TMP DP  RH WIND       PRES   REMARKS
LOUISVILLE/SDF CLOUDY    78  64  61 S8        29.85R
LOUISVILLE/LOU CLOUDY    78  65  63 S7        29.86R
FORT KNOX      CLOUDY    74  65  71 SE5       29.85R
$$

KYZ035>037-039>044-047>052-055>060-089>105-270300-
NORTHEAST KENTUCKY

CITY           SKY/WX    TMP DP  RH WIND       PRES   REMARKS
LEXINGTON      CLOUDY    72  62  71 S7        29.90R
COVINGTON      CLOUDY    72  62  71 SE9       29.85F
FRANKFORT      CLOUDY    75  62  64 S9        29.86F
$$

KYZ054-064>069-076>088-106>120-270300-
SOUTHEAST KENTUCKY

CITY           SKY/WX    TMP DP  RH WIND       PRES   REMARKS
JACKSON        CLEAR     71  57  61 CALM      29.95R
LONDON         PTCLDY    70  59  68 S3        29.94R
SOMERSET       MOCLDY    72  61  68 CALM      29.93R
MIDDLESBORO    CLEAR     65  62  89 CALM      29.97R
MONTICELLO     PTCLDY    71  63  75 E6        29.94R
$$




USA.gov is the U.S. government's official web portal to all federal, state and local government web resources and services.